This is the latest recevied weather packets stored in our database for station/object 9A3XK-13. If no packets are shown the sender has not sent any weather packets the latest 1 day(s).
| Time | Temp. | Humidity | Pressure | Rain* | Wind** | Luminosity | Snow |
|---|---|---|---|---|---|---|---|
| 1778086516 | 26.11° C | 44% | 1008.2 hPa | 0 mm | - | 28 W/m² | - |
| 1778086216 | 26.11° C | 43% | 1008.1 hPa | 0 mm | - | 32 W/m² | - |
| 1778085916 | 26.11° C | 43% | 1008.2 hPa | 0 mm | - | 43 W/m² | - |
| 1778085616 | 26.11° C | 43% | 1008.1 hPa | 0 mm | - | 41 W/m² | - |
| 1778085316 | 26.67° C | 42% | 1008.1 hPa | 0 mm | - | 50 W/m² | - |
| 1778084716 | 26.67° C | 42% | 1008.1 hPa | 0 mm | - | 73 W/m² | - |
| 1778084116 | 27.22° C | 40% | 1008.1 hPa | 0 mm | - | 73 W/m² | - |
| 1778083216 | 27.22° C | 40% | 1008.3 hPa | 0 mm | - | 159 W/m² | - |
| 1778082917 | 27.78° C | 39% | 1008.3 hPa | 0 mm | - | 110 W/m² | - |
| 1778081716 | 28.33° C | 38% | 1008.4 hPa | 0 mm | - | 230 W/m² | - |
| 1778081116 | 28.33° C | 38% | 1008.4 hPa | 0 mm | - | 370 W/m² | - |
| 1778080816 | 28.33° C | 38% | 1008.5 hPa | 0 mm | - | 430 W/m² | - |
| 1778080516 | 28.33° C | 38% | 1008.6 hPa | 0 mm | - | 543 W/m² | - |
| 1778079916 | 28.33° C | 37% | 1008.7 hPa | 0 mm | - | 180 W/m² | - |
| 1778079616 | 28.89° C | 36% | 1008.8 hPa | 0 mm | - | 115 W/m² | - |
| 1778079315 | 28.89° C | 36% | 1008.7 hPa | 0 mm | - | 129 W/m² | - |
| 1778079016 | 29.44° C | 35% | 1008.8 hPa | 0 mm | - | 169 W/m² | - |
| 1778077216 | 28.89° C | 36% | 1009 hPa | 0 mm | - | 357 W/m² | - |
| 1778076016 | 29.44° C | 34% | 1009.1 hPa | 0 mm | - | 630 W/m² | - |
| 1778075416 | 29.44° C | 35% | 1009.1 hPa | 0 mm | - | 627 W/m² | - |
| 1778075116 | 29.44° C | 35% | 1009.1 hPa | 0 mm | - | 652 W/m² | - |
| 1778074816 | 29.44° C | 36% | 1009.3 hPa | 0 mm | - | 672 W/m² | - |
| 1778074216 | 29.44° C | 36% | 1009.4 hPa | 0 mm | - | 692 W/m² | - |
| 1778071515 | 28.33° C | 37% | 1009.8 hPa | 0 mm | - | 792 W/m² | - |
| 1778068517 | 27.78° C | 40% | 1010.3 hPa | 0 mm | - | 874 W/m² | - |
* Rain latest hour (hover to see other rain measurements)
** Current wind speed in m/s (hover to see current wind gust speed)